FJI911 NFFN-YSSY

Flight info

Callsign FJI911
Flight time 4h 3m
Altitude 40000
Route ECHO MI DCT VIBEX G224 NF B450 LHI H258 RIKNI N774 MARLN MARLN5
Aircraft A359/H-SDE2E3GHIJ3J4J5LM1ORWXY/LB1D1

Departure

Time 2026-04-30 01:57
Airport Nadi International Airport (NFFN)

Arrival

Time 2026-04-30 06:00
Airport Sydney Kingsford Smith International Airport (YSSY)
Time Latitude Longitude Altitude Speed Heading
2026-04-30 01:02 -17.75185 177.45006 53 ft 0 kts 104°
2026-04-30 01:11 -17.75185 177.45005 80 ft 0 kts 104°
2026-04-30 01:30 -17.75185 177.45004 49 ft 0 kts 104°
2026-04-30 01:32 -17.75184 177.45004 49 ft 0 kts 104°
2026-04-30 01:47 -17.75183 177.44997 53 ft 4 kts 103°
2026-04-30 01:47 -17.75178 177.44972 51 ft 4 kts 100°
2026-04-30 01:47 -17.75179 177.44948 45 ft 4 kts 46°
2026-04-30 01:48 -17.75201 177.44936 47 ft 4 kts 12°
2026-04-30 01:48 -17.75216 177.44933 48 ft 1 kts 14°
2026-04-30 01:48 -17.75217 177.44932 47 ft 0 kts 14°
2026-04-30 01:51 -17.75218 177.44932 48 ft 0 kts 14°
2026-04-30 01:52 -17.75217 177.44932 47 ft 0 kts 14°
2026-04-30 01:52 -17.75216 177.44933 48 ft 0 kts 14°
2026-04-30 01:52 -17.75200 177.44937 47 ft 5 kts 14°
2026-04-30 01:53 -17.75150 177.44950 48 ft 9 kts 14°
2026-04-30 01:53 -17.75080 177.44963 51 ft 10 kts 353°
2026-04-30 01:53 -17.75040 177.44910 48 ft 8 kts 288°
2026-04-30 01:53 -17.75038 177.44901 53 ft 0 kts 285°
2026-04-30 01:55 -17.75034 177.44887 49 ft 5 kts 285°
2026-04-30 01:55 -17.75021 177.44832 49 ft 9 kts 283°
2026-04-30 01:55 -17.75009 177.44763 51 ft 10 kts 273°
2026-04-30 01:55 -17.75048 177.44698 49 ft 12 kts 219°
2026-04-30 01:56 -17.75181 177.44591 47 ft 51 kts 217°
2026-04-30 01:56 -17.75645 177.44218 45 ft 117 kts 217°
2026-04-30 01:56 -17.76449 177.43571 54 ft 172 kts 218°
2026-04-30 01:56 -17.77445 177.42802 602 ft 180 kts 220°
2026-04-30 01:57 -17.78443 177.42015 1424 ft 178 kts 213°
2026-04-30 01:57 -17.79464 177.41171 1833 ft 198 kts 214°
2026-04-30 01:57 -17.80610 177.40222 2115 ft 220 kts 213°
2026-04-30 01:57 -17.81884 177.39187 2449 ft 244 kts 214°
2026-04-30 01:58 -17.83272 177.38048 2963 ft 260 kts 214°
2026-04-30 01:58 -17.84726 177.36857 3626 ft 269 kts 216°
2026-04-30 01:58 -17.86217 177.35635 4355 ft 274 kts 216°
2026-04-30 01:58 -17.87736 177.34393 5018 ft 281 kts 216°
2026-04-30 01:59 -17.90777 177.31793 6611 ft 282 kts 221°
2026-04-30 01:59 -17.92207 177.30378 7376 ft 284 kts 222°
2026-04-30 01:59 -17.93615 177.28909 8126 ft 286 kts 223°
2026-04-30 02:00 -17.95012 177.27424 8946 ft 287 kts 224°
2026-04-30 02:00 -17.96416 177.25928 9786 ft 288 kts 223°
2026-04-30 02:00 -17.97842 177.24419 10414 ft 297 kts 223°
2026-04-30 02:00 -17.99351 177.22839 10735 ft 316 kts 223°
2026-04-30 02:01 -18.00952 177.21171 11045 ft 333 kts 223°
2026-04-30 02:01 -18.02642 177.19420 11340 ft 349 kts 223°
2026-04-30 02:01 -18.04407 177.17590 11641 ft 363 kts 223°
2026-04-30 02:01 -18.06216 177.15711 12128 ft 369 kts 223°
2026-04-30 02:02 -18.08059 177.13797 12657 ft 374 kts 224°
2026-04-30 02:02 -18.09918 177.11863 13244 ft 378 kts 224°
2026-04-30 02:02 -18.11797 177.09908 13777 ft 382 kts 224°
2026-04-30 02:02 -18.13685 177.07943 14276 ft 384 kts 224°
2026-04-30 02:03 -18.15596 177.05954 14765 ft 388 kts 224°
2026-04-30 02:03 -18.17521 177.03950 15274 ft 390 kts 225°
2026-04-30 02:03 -18.19459 177.01932 15755 ft 394 kts 225°
2026-04-30 02:03 -18.21407 176.99903 16264 ft 396 kts 225°
2026-04-30 02:04 -18.23385 176.97866 16741 ft 400 kts 223°
2026-04-30 02:04 -18.25541 176.95999 17242 ft 403 kts 218°
2026-04-30 02:04 -18.27768 176.94252 17685 ft 407 kts 217°
2026-04-30 02:04 -18.30085 176.92512 18128 ft 411 kts 217°
2026-04-30 02:05 -18.32437 176.90791 18544 ft 414 kts 217°
2026-04-30 02:05 -18.34813 176.89068 19001 ft 415 kts 216°
2026-04-30 02:05 -18.37201 176.87338 19438 ft 417 kts 217°
2026-04-30 02:05 -18.39590 176.85606 19892 ft 419 kts 216°
2026-04-30 02:06 -18.41994 176.83856 20355 ft 420 kts 217°
2026-04-30 02:06 -18.44405 176.82097 20815 ft 423 kts 217°
2026-04-30 02:06 -18.46829 176.80324 21256 ft 425 kts 217°
2026-04-30 02:06 -18.49265 176.78540 21742 ft 427 kts 217°
2026-04-30 02:07 -18.51706 176.76751 22193 ft 429 kts 217°
2026-04-30 02:07 -18.54165 176.74947 22649 ft 432 kts 217°
2026-04-30 02:07 -18.56637 176.73134 23105 ft 434 kts 218°
2026-04-30 02:07 -18.59123 176.71309 23548 ft 436 kts 218°
2026-04-30 02:08 -18.61617 176.69479 23902 ft 439 kts 218°
2026-04-30 02:08 -18.64133 176.67632 24248 ft 442 kts 218°
2026-04-30 02:08 -18.66665 176.65772 24629 ft 444 kts 218°
2026-04-30 02:08 -18.69204 176.63907 25020 ft 447 kts 218°
2026-04-30 02:09 -18.71765 176.62025 25429 ft 450 kts 218°
2026-04-30 02:09 -18.74340 176.60131 25860 ft 452 kts 218°
2026-04-30 02:09 -18.76930 176.58226 26312 ft 455 kts 218°
2026-04-30 02:09 -18.79533 176.56311 26748 ft 457 kts 219°
2026-04-30 02:10 -18.82146 176.54388 27183 ft 460 kts 219°
2026-04-30 02:10 -18.84781 176.52447 27602 ft 463 kts 219°
2026-04-30 02:10 -18.87433 176.50494 28025 ft 466 kts 219°
2026-04-30 02:10 -18.90102 176.48527 28448 ft 469 kts 219°
2026-04-30 02:11 -18.92782 176.46551 28851 ft 472 kts 219°
2026-04-30 02:11 -18.95483 176.44559 29267 ft 475 kts 219°
2026-04-30 02:11 -18.98199 176.42555 29656 ft 477 kts 219°
2026-04-30 02:11 -19.00924 176.40544 30026 ft 480 kts 219°
2026-04-30 02:12 -19.03674 176.38517 30340 ft 483 kts 219°
2026-04-30 02:12 -19.06434 176.36478 30660 ft 485 kts 219°
2026-04-30 02:12 -19.09199 176.34425 30995 ft 486 kts 220°
2026-04-30 02:12 -19.11971 176.32363 31324 ft 487 kts 220°
2026-04-30 02:13 -19.14741 176.30301 31647 ft 489 kts 220°
2026-04-30 02:13 -19.17525 176.28229 31963 ft 490 kts 220°
2026-04-30 02:13 -19.20316 176.26152 32264 ft 491 kts 220°
2026-04-30 02:13 -19.23106 176.24076 32673 ft 489 kts 220°
2026-04-30 02:14 -19.25873 176.22019 33159 ft 486 kts 220°
2026-04-30 02:14 -19.28630 176.19969 33621 ft 483 kts 220°
2026-04-30 02:14 -19.31339 176.17953 33967 ft 483 kts 220°
2026-04-30 02:14 -19.34092 176.15900 34161 ft 484 kts 220°
2026-04-30 02:15 -19.36877 176.13822 34453 ft 484 kts 220°
2026-04-30 02:15 -19.39593 176.11797 34749 ft 483 kts 220°
2026-04-30 02:15 -19.42341 176.09747 35078 ft 482 kts 221°
2026-04-30 02:15 -19.45082 176.07702 35404 ft 481 kts 221°
2026-04-30 02:16 -19.47848 176.05638 35739 ft 479 kts 221°
2026-04-30 02:16 -19.50526 176.03639 36059 ft 477 kts 221°
2026-04-30 02:16 -19.53241 176.01610 36373 ft 476 kts 221°
2026-04-30 02:16 -19.55948 175.99585 36658 ft 475 kts 221°
2026-04-30 02:17 -19.58642 175.97570 36964 ft 474 kts 221°
2026-04-30 02:17 -19.61337 175.95553 37232 ft 473 kts 221°
2026-04-30 02:17 -19.64026 175.93541 37518 ft 472 kts 221°
2026-04-30 02:17 -19.66709 175.91532 37795 ft 471 kts 222°
2026-04-30 02:18 -19.69377 175.89533 38070 ft 470 kts 222°
2026-04-30 02:18 -19.72047 175.87532 38321 ft 469 kts 222°
2026-04-30 02:18 -19.74711 175.85535 38565 ft 468 kts 222°
2026-04-30 02:18 -19.77375 175.83541 38750 ft 469 kts 222°
2026-04-30 02:19 -19.80036 175.81546 38898 ft 469 kts 222°
2026-04-30 02:19 -19.82699 175.79546 39072 ft 468 kts 222°
2026-04-30 02:19 -19.85359 175.77545 39233 ft 468 kts 222°
2026-04-30 02:19 -19.88017 175.75545 39406 ft 468 kts 222°
2026-04-30 02:20 -19.90663 175.73554 39580 ft 467 kts 222°
2026-04-30 02:20 -19.93312 175.71562 39758 ft 466 kts 222°
2026-04-30 02:20 -19.95957 175.69572 39916 ft 465 kts 222°
2026-04-30 02:21 -20.01245 175.65590 40011 ft 465 kts 222°
2026-04-30 02:21 -20.06515 175.61619 40015 ft 465 kts 222°
2026-04-30 02:22 -20.11783 175.57647 40014 ft 463 kts 223°
2026-04-30 02:22 -20.17039 175.53680 40021 ft 463 kts 223°
2026-04-30 02:23 -20.22290 175.49713 40019 ft 463 kts 223°
2026-04-30 02:23 -20.27533 175.45749 40020 ft 462 kts 223°
2026-04-30 02:24 -20.32781 175.41778 40025 ft 462 kts 223°
2026-04-30 02:24 -20.38023 175.37808 40022 ft 462 kts 223°
2026-04-30 02:25 -20.43262 175.33837 40027 ft 462 kts 223°
2026-04-30 02:25 -20.48461 175.29894 40024 ft 461 kts 223°
2026-04-30 02:26 -20.53723 175.25899 40024 ft 461 kts 223°
2026-04-30 02:26 -20.58906 175.21960 40029 ft 461 kts 223°
2026-04-30 02:27 -20.64124 175.17991 40028 ft 461 kts 223°
2026-04-30 02:27 -20.69347 175.14015 40035 ft 461 kts 223°
2026-04-30 02:28 -20.74563 175.10041 40049 ft 461 kts 223°
2026-04-30 02:28 -20.79787 175.06058 40035 ft 461 kts 223°
2026-04-30 02:29 -20.85013 175.02069 40036 ft 461 kts 223°
2026-04-30 02:29 -20.90233 174.98082 40037 ft 461 kts 223°
2026-04-30 02:30 -20.95458 174.94088 40039 ft 461 kts 223°
2026-04-30 02:30 -21.00675 174.90096 40041 ft 461 kts 223°
2026-04-30 02:31 -21.05897 174.86097 40034 ft 461 kts 223°
2026-04-30 02:31 -21.10233 174.82774 40041 ft 462 kts 224°
2026-04-30 02:32 -21.15462 174.78762 40042 ft 462 kts 224°
2026-04-30 02:32 -21.20686 174.74751 40039 ft 462 kts 224°
2026-04-30 02:33 -21.25914 174.70734 40040 ft 462 kts 224°
2026-04-30 02:33 -21.31136 174.66718 40049 ft 462 kts 224°
2026-04-30 02:34 -21.36362 174.62694 40045 ft 462 kts 224°
2026-04-30 02:34 -21.41584 174.58671 40047 ft 462 kts 224°
2026-04-30 02:35 -21.46813 174.54638 40043 ft 462 kts 224°
2026-04-30 02:35 -21.52033 174.50609 40045 ft 462 kts 224°
2026-04-30 02:36 -21.57259 174.46571 40048 ft 462 kts 224°
2026-04-30 02:36 -21.62476 174.42538 40048 ft 462 kts 224°
2026-04-30 02:37 -21.67696 174.38497 40048 ft 462 kts 224°
2026-04-30 02:37 -21.72909 174.34459 40051 ft 462 kts 224°
2026-04-30 02:38 -21.78089 174.30443 40048 ft 461 kts 224°
2026-04-30 02:38 -21.83293 174.26403 40048 ft 462 kts 224°
2026-04-30 02:39 -21.88507 174.22352 40051 ft 462 kts 224°
2026-04-30 02:39 -21.93714 174.18303 40052 ft 462 kts 224°
2026-04-30 02:40 -21.98927 174.14247 40053 ft 462 kts 224°
2026-04-30 02:40 -22.04132 174.10193 40062 ft 462 kts 225°
2026-04-30 02:41 -22.09332 174.06143 40048 ft 461 kts 225°
2026-04-30 02:41 -22.14525 174.02094 40055 ft 460 kts 225°
2026-04-30 02:42 -22.19705 173.98045 40053 ft 460 kts 225°
2026-04-30 02:42 -22.24892 173.93988 40052 ft 460 kts 225°
2026-04-30 02:43 -22.30073 173.89935 40058 ft 460 kts 225°
2026-04-30 02:43 -22.35268 173.85866 40072 ft 462 kts 225°
2026-04-30 02:44 -22.40466 173.81792 40056 ft 462 kts 225°
2026-04-30 02:44 -22.45675 173.77707 40057 ft 462 kts 225°
2026-04-30 02:45 -22.50874 173.73625 40055 ft 462 kts 225°
2026-04-30 02:45 -22.56080 173.69533 40057 ft 462 kts 225°
2026-04-30 02:46 -22.61280 173.65443 40061 ft 462 kts 225°
2026-04-30 02:46 -22.66483 173.61345 40074 ft 462 kts 226°
2026-04-30 02:47 -22.71680 173.57249 40058 ft 462 kts 226°
2026-04-30 02:47 -22.76885 173.53142 40063 ft 463 kts 226°
2026-04-30 02:48 -22.82086 173.49033 40063 ft 463 kts 226°
2026-04-30 02:48 -22.87303 173.44909 40062 ft 464 kts 226°
2026-04-30 02:49 -22.92511 173.40789 40060 ft 464 kts 226°
2026-04-30 02:49 -22.97724 173.36660 40080 ft 464 kts 226°
2026-04-30 02:50 -23.02930 173.32533 40064 ft 464 kts 226°
2026-04-30 02:50 -23.08142 173.28397 40062 ft 464 kts 226°
2026-04-30 02:51 -23.13312 173.24290 40063 ft 464 kts 226°
2026-04-30 02:51 -23.18521 173.20148 40061 ft 464 kts 226°
2026-04-30 02:52 -23.23721 173.16009 40062 ft 464 kts 226°
2026-04-30 02:52 -23.28931 173.11857 40077 ft 465 kts 226°
2026-04-30 02:53 -23.34148 173.07695 40067 ft 465 kts 226°
2026-04-30 02:53 -23.39362 173.03534 40067 ft 465 kts 226°
2026-04-30 02:54 -23.44576 172.99368 40069 ft 465 kts 226°
2026-04-30 02:54 -23.49795 172.95194 40072 ft 465 kts 226°
2026-04-30 02:55 -23.55004 172.91023 40069 ft 465 kts 226°
2026-04-30 02:55 -23.60219 172.86843 40087 ft 465 kts 226°
2026-04-30 02:56 -23.65424 172.82666 40072 ft 465 kts 226°
2026-04-30 02:56 -23.70598 172.78511 40072 ft 465 kts 226°
2026-04-30 02:57 -23.75811 172.74320 40075 ft 465 kts 226°
2026-04-30 02:57 -23.81016 172.70131 40075 ft 465 kts 226°
2026-04-30 02:58 -23.86223 172.65936 40075 ft 465 kts 226°
2026-04-30 02:58 -23.91431 172.61736 40081 ft 465 kts 226°
2026-04-30 02:59 -23.96645 172.57526 40075 ft 467 kts 226°
2026-04-30 02:59 -24.01862 172.53310 40075 ft 467 kts 226°
2026-04-30 03:00 -24.07086 172.49086 40075 ft 467 kts 226°
2026-04-30 03:00 -24.12308 172.44858 40081 ft 467 kts 226°
2026-04-30 03:01 -24.17522 172.40631 40086 ft 467 kts 227°
2026-04-30 03:01 -24.22753 172.36386 40086 ft 468 kts 227°
2026-04-30 03:02 -24.27984 172.32137 40084 ft 468 kts 227°
2026-04-30 03:02 -24.33220 172.27880 40090 ft 468 kts 227°
2026-04-30 03:03 -24.38447 172.23626 40085 ft 468 kts 227°
2026-04-30 03:03 -24.46290 172.17233 40090 ft 468 kts 227°
2026-04-30 03:04 -24.51520 172.12965 40088 ft 468 kts 227°
2026-04-30 03:04 -24.56740 172.08701 40098 ft 468 kts 227°
2026-04-30 03:05 -24.61965 172.04427 40096 ft 468 kts 227°
2026-04-30 03:05 -24.67181 172.00157 40102 ft 468 kts 227°
2026-04-30 03:06 -24.72400 171.95879 40096 ft 468 kts 227°
2026-04-30 03:06 -24.77612 171.91602 40099 ft 468 kts 227°
2026-04-30 03:07 -24.82790 171.87349 40104 ft 467 kts 227°
2026-04-30 03:07 -24.88020 171.83049 40103 ft 466 kts 227°
2026-04-30 03:08 -24.93218 171.78770 40100 ft 466 kts 227°
2026-04-30 03:08 -24.98407 171.74494 40100 ft 466 kts 227°
2026-04-30 03:09 -25.03519 171.70187 40099 ft 463 kts 229°
2026-04-30 03:09 -25.08516 171.65657 40102 ft 462 kts 230°
2026-04-30 03:10 -25.13436 171.61160 40096 ft 462 kts 229°
2026-04-30 03:10 -25.18416 171.56654 40093 ft 463 kts 229°
2026-04-30 03:11 -25.23404 171.52166 40098 ft 463 kts 229°
2026-04-30 03:11 -25.28399 171.47673 40099 ft 463 kts 229°
2026-04-30 03:12 -25.33384 171.43181 40109 ft 463 kts 229°
2026-04-30 03:12 -25.38373 171.38680 40110 ft 463 kts 229°
2026-04-30 03:13 -25.43350 171.34185 40109 ft 462 kts 229°
2026-04-30 03:13 -25.48323 171.29688 40103 ft 461 kts 229°
2026-04-30 03:14 -25.53289 171.25190 40112 ft 462 kts 229°
2026-04-30 03:14 -25.58257 171.20687 40110 ft 462 kts 229°
2026-04-30 03:15 -25.63232 171.16173 40110 ft 462 kts 229°
2026-04-30 03:15 -25.68172 171.11685 40129 ft 462 kts 228°
2026-04-30 03:16 -25.73171 171.07140 40110 ft 462 kts 228°
2026-04-30 03:16 -25.78142 171.02615 40113 ft 462 kts 228°
2026-04-30 03:17 -25.83106 170.98090 40113 ft 462 kts 228°
2026-04-30 03:17 -25.88040 170.93589 40113 ft 462 kts 228°
2026-04-30 03:18 -25.92998 170.89059 40119 ft 462 kts 228°
2026-04-30 03:18 -25.97969 170.84512 40132 ft 463 kts 228°
2026-04-30 03:19 -26.02938 170.79962 40116 ft 463 kts 228°
2026-04-30 03:19 -26.07919 170.75398 40116 ft 464 kts 228°
2026-04-30 03:20 -26.12083 170.71578 40119 ft 464 kts 228°
2026-04-30 03:20 -26.17060 170.67007 40120 ft 464 kts 228°
2026-04-30 03:21 -26.22035 170.62432 40119 ft 464 kts 228°
2026-04-30 03:21 -26.27002 170.57859 40134 ft 464 kts 227°
2026-04-30 03:22 -26.31942 170.53305 40130 ft 464 kts 227°
2026-04-30 03:22 -26.36913 170.48719 40122 ft 464 kts 227°
2026-04-30 03:23 -26.41912 170.44102 40118 ft 464 kts 227°
2026-04-30 03:23 -26.46848 170.39537 40127 ft 464 kts 227°
2026-04-30 03:24 -26.51842 170.34913 40125 ft 464 kts 227°
2026-04-30 03:24 -26.56774 170.30340 40123 ft 463 kts 227°
2026-04-30 03:25 -26.61733 170.25738 40123 ft 464 kts 227°
2026-04-30 03:25 -26.66695 170.21128 40124 ft 464 kts 227°
2026-04-30 03:26 -26.71649 170.16520 40137 ft 463 kts 227°
2026-04-30 03:26 -26.76604 170.11906 40127 ft 463 kts 227°
2026-04-30 03:27 -26.81544 170.07299 40127 ft 462 kts 227°
2026-04-30 03:27 -26.86492 170.02681 40127 ft 463 kts 227°
2026-04-30 03:28 -26.91436 169.98058 40129 ft 463 kts 227°
2026-04-30 03:28 -26.96388 169.93426 40129 ft 463 kts 227°
2026-04-30 03:29 -27.01331 169.88796 40132 ft 463 kts 227°
2026-04-30 03:29 -27.06278 169.84156 40132 ft 463 kts 227°
2026-04-30 03:30 -27.11223 169.79512 40161 ft 463 kts 227°
2026-04-30 03:30 -27.16161 169.74869 40133 ft 463 kts 227°
2026-04-30 03:31 -27.21073 169.70244 40130 ft 464 kts 227°
2026-04-30 03:31 -27.26011 169.65591 40135 ft 464 kts 227°
2026-04-30 03:32 -27.30954 169.60928 40131 ft 463 kts 227°
2026-04-30 03:32 -27.35886 169.56268 40132 ft 463 kts 227°
2026-04-30 03:33 -27.40818 169.51604 40135 ft 463 kts 227°
2026-04-30 03:33 -27.45753 169.46930 40139 ft 463 kts 227°
2026-04-30 03:34 -27.50687 169.42252 40143 ft 463 kts 227°
2026-04-30 03:34 -27.55611 169.37579 40137 ft 463 kts 227°
2026-04-30 03:35 -27.60538 169.32896 40140 ft 463 kts 227°
2026-04-30 03:35 -27.65459 169.28213 40164 ft 463 kts 227°
2026-04-30 03:36 -27.70369 169.23535 40137 ft 462 kts 227°
2026-04-30 03:36 -27.75276 169.18855 40139 ft 461 kts 227°
2026-04-30 03:37 -27.80179 169.14171 40148 ft 461 kts 227°
2026-04-30 03:37 -27.85074 169.09490 40142 ft 461 kts 227°
2026-04-30 03:38 -27.89975 169.04798 40145 ft 461 kts 227°
2026-04-30 03:38 -27.94868 169.00108 40149 ft 461 kts 227°
2026-04-30 03:39 -27.99747 168.95425 40150 ft 460 kts 227°
2026-04-30 03:39 -28.04627 168.90736 40147 ft 460 kts 227°
2026-04-30 03:40 -28.09504 168.86043 40146 ft 460 kts 227°
2026-04-30 03:40 -28.14373 168.81352 40147 ft 460 kts 227°
2026-04-30 03:41 -28.19247 168.76652 40150 ft 460 kts 227°
2026-04-30 03:41 -28.24076 168.71988 40154 ft 459 kts 227°
2026-04-30 03:42 -28.28939 168.67286 40151 ft 459 kts 226°
2026-04-30 03:42 -28.33833 168.62547 40156 ft 460 kts 226°
2026-04-30 03:43 -28.38702 168.57827 40156 ft 460 kts 226°
2026-04-30 03:43 -28.43567 168.53106 40162 ft 460 kts 226°
2026-04-30 03:44 -28.48403 168.48407 40167 ft 460 kts 226°
2026-04-30 03:44 -28.53261 168.43680 40162 ft 460 kts 226°
2026-04-30 03:45 -28.58124 168.38943 40162 ft 460 kts 226°
2026-04-30 03:45 -28.62978 168.34207 40170 ft 460 kts 226°
2026-04-30 03:46 -28.67839 168.29460 40171 ft 460 kts 226°
2026-04-30 03:46 -28.72700 168.24706 40170 ft 461 kts 226°
2026-04-30 03:47 -28.77568 168.19939 40171 ft 461 kts 227°
2026-04-30 03:47 -28.82431 168.15172 40170 ft 461 kts 227°
2026-04-30 03:48 -28.87299 168.10393 40182 ft 461 kts 227°
2026-04-30 03:48 -28.92159 168.05617 40183 ft 461 kts 227°
2026-04-30 03:49 -28.96992 168.00860 40184 ft 461 kts 227°
2026-04-30 03:49 -29.01790 167.95952 40195 ft 457 kts 232°
2026-04-30 03:50 -29.05448 167.90191 40184 ft 447 kts 248°
2026-04-30 03:50 -29.07836 167.83620 40183 ft 444 kts 254°
2026-04-30 03:51 -29.09898 167.77026 40187 ft 444 kts 255°
2026-04-30 03:51 -29.11940 167.70369 40192 ft 444 kts 255°
2026-04-30 03:52 -29.14004 167.63709 40193 ft 444 kts 254°
2026-04-30 03:52 -29.16081 167.57049 40195 ft 445 kts 254°
2026-04-30 03:53 -29.18166 167.50362 40196 ft 448 kts 254°
2026-04-30 03:53 -29.20258 167.43641 40195 ft 448 kts 254°
2026-04-30 03:54 -29.22345 167.36924 40191 ft 448 kts 254°
2026-04-30 03:54 -29.24432 167.30187 40199 ft 449 kts 254°
2026-04-30 03:55 -29.26516 167.23447 40197 ft 449 kts 254°
2026-04-30 03:55 -29.28602 167.16684 40196 ft 451 kts 254°
2026-04-30 03:56 -29.30689 167.09906 40196 ft 452 kts 254°
2026-04-30 03:56 -29.32776 167.03114 40203 ft 452 kts 254°
2026-04-30 03:57 -29.34858 166.96327 40205 ft 452 kts 254°
2026-04-30 03:57 -29.36938 166.89529 40203 ft 452 kts 254°
2026-04-30 03:58 -29.39013 166.82734 40203 ft 453 kts 253°
2026-04-30 03:58 -29.41094 166.75903 40208 ft 454 kts 254°
2026-04-30 03:59 -29.43175 166.69060 40209 ft 454 kts 254°
2026-04-30 03:59 -29.45239 166.62262 40211 ft 455 kts 254°
2026-04-30 04:00 -29.47317 166.55400 40211 ft 456 kts 254°
2026-04-30 04:00 -29.49395 166.48523 40212 ft 456 kts 254°
2026-04-30 04:01 -29.51468 166.41650 40212 ft 456 kts 254°
2026-04-30 04:01 -29.53541 166.34762 40212 ft 456 kts 254°
2026-04-30 04:02 -29.55608 166.27878 40209 ft 456 kts 254°
2026-04-30 04:02 -29.57674 166.20985 40216 ft 456 kts 254°
2026-04-30 04:03 -29.59734 166.14098 40222 ft 456 kts 254°
2026-04-30 04:03 -29.61793 166.07194 40216 ft 457 kts 254°
2026-04-30 04:04 -29.63852 166.00281 40217 ft 457 kts 254°
2026-04-30 04:04 -29.65905 165.93372 40228 ft 457 kts 254°
2026-04-30 04:05 -29.67957 165.86450 40217 ft 457 kts 254°
2026-04-30 04:05 -29.70008 165.79516 40225 ft 458 kts 254°
2026-04-30 04:06 -29.72053 165.72589 40222 ft 458 kts 254°
2026-04-30 04:06 -29.74084 165.65693 40228 ft 458 kts 254°
2026-04-30 04:07 -29.76125 165.58748 40230 ft 458 kts 254°
2026-04-30 04:08 -29.79177 165.48335 40227 ft 458 kts 254°
2026-04-30 04:08 -29.81206 165.41392 40235 ft 458 kts 254°
2026-04-30 04:09 -29.82892 165.35612 40238 ft 458 kts 254°
2026-04-30 04:09 -29.84917 165.28656 40236 ft 458 kts 254°
2026-04-30 04:10 -29.86936 165.21706 40234 ft 458 kts 254°
2026-04-30 04:10 -29.88954 165.14744 40232 ft 458 kts 254°
2026-04-30 04:11 -29.90965 165.07789 40247 ft 458 kts 254°
2026-04-30 04:11 -29.92976 165.00820 40240 ft 458 kts 254°
2026-04-30 04:12 -29.94981 164.93855 40233 ft 458 kts 254°
2026-04-30 04:12 -29.96986 164.86878 40232 ft 458 kts 254°
2026-04-30 04:13 -29.98987 164.79898 40235 ft 458 kts 254°
2026-04-30 04:13 -30.00981 164.72924 40236 ft 458 kts 254°
2026-04-30 04:14 -30.02975 164.65935 40239 ft 459 kts 253°
2026-04-30 04:14 -30.04965 164.58944 40251 ft 459 kts 253°
2026-04-30 04:15 -30.06958 164.51929 40247 ft 460 kts 253°
2026-04-30 04:15 -30.08946 164.44914 40245 ft 460 kts 254°
2026-04-30 04:16 -30.10933 164.37887 40243 ft 460 kts 254°
2026-04-30 04:16 -30.12914 164.30865 40254 ft 460 kts 253°
2026-04-30 04:17 -30.14896 164.23824 40252 ft 461 kts 253°
2026-04-30 04:17 -30.16872 164.16787 40252 ft 461 kts 253°
2026-04-30 04:18 -30.18847 164.09738 40249 ft 461 kts 253°
2026-04-30 04:18 -30.20816 164.02696 40255 ft 461 kts 253°
2026-04-30 04:19 -30.22769 163.95690 40256 ft 460 kts 253°
2026-04-30 04:19 -30.24732 163.88638 40259 ft 461 kts 253°
2026-04-30 04:20 -30.26690 163.81582 40256 ft 461 kts 253°
2026-04-30 04:20 -30.28650 163.74507 40264 ft 462 kts 253°
2026-04-30 04:21 -30.30603 163.67437 40261 ft 462 kts 253°
2026-04-30 04:21 -30.32553 163.60362 40260 ft 461 kts 253°
2026-04-30 04:22 -30.34497 163.53294 40265 ft 461 kts 253°
2026-04-30 04:22 -30.36434 163.46234 40270 ft 461 kts 253°
2026-04-30 04:23 -30.38370 163.39162 40270 ft 460 kts 253°
2026-04-30 04:23 -30.40299 163.32097 40271 ft 460 kts 253°
2026-04-30 04:24 -30.42228 163.25018 40270 ft 460 kts 253°
2026-04-30 04:24 -30.44148 163.17951 40277 ft 460 kts 253°
2026-04-30 04:25 -30.46068 163.10870 40279 ft 460 kts 253°
2026-04-30 04:25 -30.47982 163.03795 40277 ft 460 kts 253°
2026-04-30 04:26 -30.49905 162.96713 40282 ft 460 kts 252°
2026-04-30 04:26 -30.51895 162.89659 40286 ft 459 kts 252°
2026-04-30 04:27 -30.53892 162.82634 40286 ft 459 kts 252°
2026-04-30 04:27 -30.55876 162.75596 40285 ft 459 kts 252°
2026-04-30 04:28 -30.57849 162.68558 40291 ft 459 kts 252°
2026-04-30 04:28 -30.59815 162.61519 40288 ft 459 kts 252°
2026-04-30 04:29 -30.61776 162.54480 40295 ft 458 kts 252°
2026-04-30 04:29 -30.63722 162.47481 40289 ft 458 kts 252°
2026-04-30 04:30 -30.65688 162.40395 40291 ft 458 kts 252°
2026-04-30 04:30 -30.67627 162.33392 40287 ft 458 kts 252°
2026-04-30 04:31 -30.69572 162.26349 40294 ft 458 kts 252°
2026-04-30 04:31 -30.71515 162.19297 40293 ft 458 kts 252°
2026-04-30 04:32 -30.73450 162.12254 40298 ft 458 kts 252°
2026-04-30 04:32 -30.75383 162.05206 40302 ft 458 kts 252°
2026-04-30 04:33 -30.77312 161.98152 40302 ft 458 kts 252°
2026-04-30 04:33 -30.79236 161.91103 40307 ft 458 kts 252°
2026-04-30 04:34 -30.81160 161.84036 40310 ft 458 kts 252°
2026-04-30 04:34 -30.83079 161.76972 40303 ft 458 kts 252°
2026-04-30 04:35 -30.84996 161.69895 40304 ft 458 kts 252°
2026-04-30 04:35 -30.86907 161.62824 40316 ft 458 kts 252°
2026-04-30 04:36 -30.88817 161.55741 40293 ft 458 kts 252°
2026-04-30 04:36 -30.90722 161.48659 40312 ft 458 kts 252°
2026-04-30 04:37 -30.92620 161.41587 40319 ft 458 kts 252°
2026-04-30 04:37 -30.94516 161.34503 40317 ft 458 kts 252°
2026-04-30 04:38 -30.96406 161.27425 40326 ft 458 kts 252°
2026-04-30 04:38 -30.98283 161.20377 40312 ft 458 kts 252°
2026-04-30 04:39 -31.00167 161.13287 40325 ft 458 kts 252°
2026-04-30 04:39 -31.02049 161.06187 40325 ft 458 kts 252°
2026-04-30 04:40 -31.03925 160.99094 40320 ft 458 kts 252°
2026-04-30 04:40 -31.05799 160.91990 40318 ft 458 kts 252°
2026-04-30 04:41 -31.07666 160.84893 40319 ft 458 kts 252°
2026-04-30 04:41 -31.09533 160.77780 40324 ft 458 kts 252°
2026-04-30 04:42 -31.11395 160.70671 40329 ft 458 kts 252°
2026-04-30 04:42 -31.13254 160.63551 40331 ft 458 kts 252°
2026-04-30 04:43 -31.15111 160.56424 40322 ft 459 kts 252°
2026-04-30 04:43 -31.16962 160.49300 40326 ft 459 kts 252°
2026-04-30 04:44 -31.18813 160.42161 40326 ft 459 kts 252°
2026-04-30 04:44 -31.20657 160.35028 40333 ft 459 kts 252°
2026-04-30 04:45 -31.22500 160.27883 40333 ft 459 kts 252°
2026-04-30 04:45 -31.24337 160.20743 40326 ft 459 kts 252°
2026-04-30 04:46 -31.26172 160.13591 40332 ft 459 kts 252°
2026-04-30 04:46 -31.28000 160.06449 40334 ft 459 kts 252°
2026-04-30 04:47 -31.29826 159.99295 40339 ft 459 kts 252°
2026-04-30 04:47 -31.31650 159.92133 40331 ft 459 kts 252°
2026-04-30 04:48 -31.33468 159.84976 40330 ft 459 kts 252°
2026-04-30 04:48 -31.35290 159.77785 40342 ft 459 kts 252°
2026-04-30 04:49 -31.37090 159.70660 40342 ft 459 kts 252°
2026-04-30 04:49 -31.38909 159.63444 40348 ft 460 kts 252°
2026-04-30 04:50 -31.40702 159.56309 40344 ft 460 kts 252°
2026-04-30 04:50 -31.42501 159.49135 40343 ft 459 kts 252°
2026-04-30 04:51 -31.44297 159.41953 40344 ft 459 kts 252°
2026-04-30 04:51 -31.46098 159.34732 40352 ft 459 kts 252°
2026-04-30 04:52 -31.47876 159.27586 40351 ft 460 kts 252°
2026-04-30 04:52 -31.49662 159.20389 40347 ft 460 kts 252°
2026-04-30 04:53 -31.51453 159.13151 40346 ft 460 kts 252°
2026-04-30 04:53 -31.53500 159.06119 40348 ft 458 kts 244°
2026-04-30 04:54 -31.56250 158.99385 40346 ft 458 kts 243°
2026-04-30 04:54 -31.59114 158.92700 40348 ft 459 kts 243°
2026-04-30 04:55 -31.61986 158.86027 40351 ft 459 kts 243°
2026-04-30 04:55 -31.64845 158.79339 40363 ft 458 kts 243°
2026-04-30 04:56 -31.67691 158.72648 40366 ft 458 kts 243°
2026-04-30 04:56 -31.70068 158.67047 40363 ft 458 kts 243°
2026-04-30 04:57 -31.72888 158.60391 40365 ft 458 kts 243°
2026-04-30 04:57 -31.75738 158.53653 40365 ft 458 kts 243°
2026-04-30 04:58 -31.78570 158.46945 40366 ft 458 kts 243°
2026-04-30 04:58 -31.81396 158.40240 40373 ft 458 kts 243°
2026-04-30 04:59 -31.84225 158.33514 40371 ft 459 kts 243°
2026-04-30 04:59 -31.87048 158.26791 40371 ft 459 kts 243°
2026-04-30 05:00 -31.89872 158.20053 40366 ft 459 kts 243°
2026-04-30 05:00 -31.92690 158.13316 40373 ft 458 kts 243°
2026-04-30 05:01 -31.95480 158.06635 40381 ft 458 kts 243°
2026-04-30 05:01 -31.98288 157.99895 40388 ft 458 kts 243°
2026-04-30 05:02 -32.01092 157.93155 40376 ft 459 kts 243°
2026-04-30 05:02 -32.03898 157.86397 40371 ft 459 kts 243°
2026-04-30 05:03 -32.06696 157.79646 40383 ft 458 kts 243°
2026-04-30 05:03 -32.09491 157.72887 40387 ft 458 kts 243°
2026-04-30 05:04 -32.12279 157.66133 40387 ft 458 kts 243°
2026-04-30 05:04 -32.15068 157.59366 40386 ft 458 kts 244°
2026-04-30 05:05 -32.17850 157.52601 40381 ft 458 kts 244°
2026-04-30 05:05 -32.20632 157.45823 40387 ft 458 kts 244°
2026-04-30 05:06 -32.24794 157.35659 40392 ft 458 kts 244°
2026-04-30 05:06 -32.27567 157.28871 40390 ft 458 kts 244°
2026-04-30 05:07 -32.30333 157.22088 40391 ft 458 kts 244°
2026-04-30 05:07 -32.33098 157.15295 40402 ft 458 kts 244°
2026-04-30 05:08 -32.35858 157.08499 40386 ft 458 kts 244°
2026-04-30 05:08 -32.38612 157.01706 40395 ft 458 kts 244°
2026-04-30 05:09 -32.41366 156.94898 40394 ft 458 kts 244°
2026-04-30 05:09 -32.44113 156.88096 40394 ft 458 kts 244°
2026-04-30 05:10 -32.46857 156.81286 40398 ft 458 kts 244°
2026-04-30 05:10 -32.49594 156.74484 40397 ft 458 kts 244°
2026-04-30 05:11 -32.52331 156.67666 40406 ft 458 kts 244°
2026-04-30 05:11 -32.55062 156.60849 40404 ft 458 kts 244°
2026-04-30 05:12 -32.57794 156.54019 40400 ft 458 kts 244°
2026-04-30 05:12 -32.60519 156.47189 40404 ft 458 kts 244°
2026-04-30 05:13 -32.63236 156.40368 40406 ft 458 kts 244°
2026-04-30 05:13 -32.65953 156.33535 40407 ft 458 kts 245°
2026-04-30 05:14 -32.68663 156.26705 40409 ft 458 kts 245°
2026-04-30 05:14 -32.71374 156.19858 40406 ft 458 kts 245°
2026-04-30 05:15 -32.74077 156.13019 40407 ft 458 kts 245°
2026-04-30 05:15 -32.76779 156.06169 40410 ft 458 kts 245°
2026-04-30 05:16 -32.79473 155.99324 40412 ft 458 kts 245°
2026-04-30 05:16 -32.82168 155.92464 40405 ft 458 kts 245°
2026-04-30 05:17 -32.84835 155.85662 40409 ft 458 kts 245°
2026-04-30 05:17 -32.87029 155.80056 40412 ft 458 kts 245°
2026-04-30 05:18 -32.89708 155.73196 40413 ft 458 kts 245°
2026-04-30 05:18 -32.92388 155.66323 40412 ft 458 kts 245°
2026-04-30 05:19 -32.95064 155.59446 40416 ft 458 kts 245°
2026-04-30 05:19 -32.97732 155.52575 40416 ft 457 kts 245°
2026-04-30 05:20 -33.00400 155.45691 40415 ft 457 kts 245°
2026-04-30 05:20 -33.03061 155.38809 40419 ft 458 kts 245°
2026-04-30 05:21 -33.05724 155.31909 40417 ft 458 kts 245°
2026-04-30 05:21 -33.08378 155.25018 40419 ft 458 kts 245°
2026-04-30 05:22 -33.11033 155.18113 40422 ft 458 kts 245°
2026-04-30 05:22 -33.13680 155.11213 40423 ft 458 kts 245°
2026-04-30 05:23 -33.16310 155.04345 40423 ft 458 kts 245°
2026-04-30 05:23 -33.18980 154.97391 40414 ft 458 kts 245°
2026-04-30 05:24 -33.21620 154.90516 40425 ft 458 kts 245°
2026-04-30 05:24 -33.24269 154.83603 40425 ft 458 kts 246°
2026-04-30 05:25 -33.26916 154.76677 40424 ft 458 kts 246°
2026-04-30 05:25 -33.29555 154.69756 40424 ft 458 kts 246°
2026-04-30 05:26 -33.32194 154.62822 40422 ft 458 kts 246°
2026-04-30 05:26 -33.34828 154.55887 40425 ft 458 kts 246°
2026-04-30 05:27 -33.37460 154.48942 40426 ft 458 kts 246°
2026-04-30 05:27 -33.40085 154.42002 40428 ft 458 kts 246°
2026-04-30 05:28 -33.42710 154.35048 40418 ft 458 kts 246°
2026-04-30 05:28 -33.45327 154.28099 40435 ft 458 kts 246°
2026-04-30 05:29 -33.47941 154.21143 40423 ft 458 kts 246°
2026-04-30 05:29 -33.50555 154.14175 40423 ft 458 kts 246°
2026-04-30 05:30 -33.53164 154.07203 40425 ft 458 kts 246°
2026-04-30 05:30 -33.55767 154.00237 40424 ft 458 kts 246°
2026-04-30 05:31 -33.58368 153.93256 40429 ft 458 kts 246°
2026-04-30 05:31 -33.60964 153.86276 40432 ft 458 kts 246°
2026-04-30 05:32 -33.63557 153.79291 40424 ft 459 kts 246°
2026-04-30 05:32 -33.66150 153.72290 40422 ft 459 kts 246°
2026-04-30 05:33 -33.68739 153.65283 40424 ft 459 kts 247°
2026-04-30 05:33 -33.71321 153.58282 40425 ft 459 kts 247°
2026-04-30 05:34 -33.73899 153.51276 40424 ft 459 kts 247°
2026-04-30 05:34 -33.76477 153.44256 40428 ft 459 kts 247°
2026-04-30 05:35 -33.79053 153.37228 40425 ft 459 kts 247°
2026-04-30 05:35 -33.81622 153.30201 40266 ft 459 kts 247°
2026-04-30 05:36 -33.82907 153.26679 40037 ft 460 kts 247°
2026-04-30 05:36 -33.84192 153.23155 39811 ft 461 kts 247°
2026-04-30 05:36 -33.85473 153.19638 39446 ft 457 kts 246°
2026-04-30 05:36 -33.86748 153.16136 38775 ft 458 kts 246°
2026-04-30 05:37 -33.88024 153.12624 38063 ft 458 kts 246°
2026-04-30 05:37 -33.89297 153.09118 37380 ft 457 kts 246°
2026-04-30 05:37 -33.90570 153.05606 36675 ft 458 kts 246°
2026-04-30 05:37 -33.91846 153.02083 35968 ft 460 kts 245°
2026-04-30 05:38 -33.92694 152.99741 35483 ft 461 kts 245°
2026-04-30 05:38 -33.93940 152.96296 34702 ft 466 kts 245°
2026-04-30 05:38 -33.95068 152.93175 33902 ft 470 kts 245°
2026-04-30 05:38 -33.96379 152.89547 32978 ft 474 kts 245°
2026-04-30 05:39 -33.97698 152.85894 32078 ft 477 kts 245°
2026-04-30 05:39 -33.99469 152.80978 30808 ft 481 kts 245°
2026-04-30 05:39 -34.00354 152.78519 30103 ft 484 kts 245°
2026-04-30 05:39 -34.01697 152.74781 29076 ft 486 kts 245°
2026-04-30 05:40 -34.03028 152.71068 28392 ft 481 kts 245°
2026-04-30 05:40 -34.04348 152.67382 27691 ft 476 kts 245°
2026-04-30 05:40 -34.05656 152.63725 26994 ft 473 kts 245°
2026-04-30 05:40 -34.06919 152.60074 26283 ft 471 kts 249°
2026-04-30 05:41 -34.07692 152.56261 25627 ft 469 kts 261°
2026-04-30 05:41 -34.07744 152.52330 24932 ft 469 kts 273°
2026-04-30 05:41 -34.07445 152.48417 24237 ft 468 kts 275°
2026-04-30 05:41 -34.07088 152.44525 23453 ft 465 kts 275°
2026-04-30 05:42 -34.06724 152.40662 22725 ft 461 kts 275°
2026-04-30 05:42 -34.06363 152.36846 22014 ft 457 kts 275°
2026-04-30 05:42 -34.06004 152.33057 21319 ft 452 kts 276°
2026-04-30 05:42 -34.05646 152.29302 20614 ft 449 kts 276°
2026-04-30 05:43 -34.05291 152.25579 19909 ft 445 kts 276°
2026-04-30 05:43 -34.04938 152.21892 19192 ft 442 kts 276°
2026-04-30 05:43 -34.04585 152.18220 18446 ft 439 kts 276°
2026-04-30 05:43 -34.04234 152.14575 17681 ft 435 kts 276°
2026-04-30 05:44 -34.03885 152.10969 16955 ft 431 kts 276°
2026-04-30 05:44 -34.03540 152.07401 16243 ft 426 kts 277°
2026-04-30 05:44 -34.03198 152.03884 15537 ft 421 kts 277°
2026-04-30 05:44 -34.02848 152.00397 14836 ft 417 kts 277°
2026-04-30 05:45 -34.02499 151.96948 14148 ft 412 kts 277°
2026-04-30 05:45 -34.02153 151.93542 13362 ft 408 kts 278°
2026-04-30 05:45 -34.01812 151.90169 12647 ft 402 kts 278°
2026-04-30 05:45 -34.01474 151.86843 11962 ft 397 kts 278°
2026-04-30 05:46 -34.01141 151.83566 11289 ft 392 kts 278°
2026-04-30 05:46 -34.00816 151.80367 11038 ft 376 kts 278°
2026-04-30 05:46 -34.00505 151.77310 10788 ft 357 kts 278°
2026-04-30 05:46 -34.00220 151.74469 10553 ft 327 kts 279°
2026-04-30 05:47 -33.99951 151.71864 10376 ft 300 kts 278°
2026-04-30 05:47 -33.99706 151.69493 10239 ft 280 kts 278°
2026-04-30 05:47 -33.99466 151.67198 10101 ft 272 kts 278°
2026-04-30 05:47 -33.99231 151.64946 9972 ft 273 kts 278°
2026-04-30 05:48 -33.98986 151.62603 9895 ft 289 kts 278°
2026-04-30 05:48 -33.98737 151.60208 9544 ft 288 kts 278°
2026-04-30 05:48 -33.98486 151.57793 9020 ft 291 kts 278°
2026-04-30 05:48 -33.98232 151.55376 8765 ft 292 kts 278°
2026-04-30 05:49 -33.97979 151.52949 8562 ft 291 kts 278°
2026-04-30 05:49 -33.97728 151.50536 8354 ft 290 kts 278°
2026-04-30 05:49 -33.97479 151.48134 8132 ft 290 kts 278°
2026-04-30 05:49 -33.97224 151.45693 7928 ft 290 kts 278°
2026-04-30 05:50 -33.96974 151.43313 7716 ft 289 kts 278°
2026-04-30 05:50 -33.96724 151.40913 7506 ft 288 kts 278°
2026-04-30 05:50 -33.96791 151.38498 7145 ft 286 kts 255°
2026-04-30 05:50 -33.97659 151.36408 6715 ft 283 kts 229°
2026-04-30 05:51 -33.99121 151.34845 6314 ft 280 kts 215°
2026-04-30 05:51 -34.00723 151.33502 5857 ft 280 kts 212°
2026-04-30 05:51 -34.02503 151.32623 5396 ft 277 kts 188°
2026-04-30 05:51 -34.04415 151.32511 4938 ft 275 kts 172°
2026-04-30 05:52 -34.06280 151.32946 4529 ft 272 kts 163°
2026-04-30 05:52 -34.08066 151.33636 4152 ft 268 kts 158°
2026-04-30 05:52 -34.09819 151.34394 4009 ft 267 kts 158°
2026-04-30 05:52 -34.11570 151.35158 4002 ft 268 kts 158°
2026-04-30 05:53 -34.13365 151.35759 3993 ft 269 kts 169°
2026-04-30 05:53 -34.15233 151.35699 3993 ft 272 kts 192°
2026-04-30 05:53 -34.16922 151.34698 4004 ft 274 kts 220°
2026-04-30 05:53 -34.18001 151.32838 4007 ft 273 kts 253°
2026-04-30 05:54 -34.18122 151.30595 4009 ft 269 kts 280°
2026-04-30 05:54 -34.17824 151.28379 3790 ft 266 kts 281°
2026-04-30 05:54 -34.17518 151.26200 3533 ft 258 kts 286°
2026-04-30 05:54 -34.16707 151.24402 3497 ft 235 kts 317°
2026-04-30 05:55 -34.15466 151.23258 3474 ft 215 kts 334°
2026-04-30 05:55 -34.14135 151.22669 3485 ft 195 kts 350°
2026-04-30 05:55 -34.12832 151.22353 3350 ft 190 kts 351°
2026-04-30 05:55 -34.11544 151.22018 3086 ft 189 kts 349°
2026-04-30 05:56 -34.10258 151.21673 2811 ft 189 kts 351°
2026-04-30 05:56 -34.08987 151.21341 2560 ft 185 kts 351°
2026-04-30 05:56 -34.07757 151.21020 2310 ft 182 kts 351°
2026-04-30 05:56 -34.06539 151.20702 2056 ft 177 kts 351°
2026-04-30 05:57 -34.05352 151.20392 1824 ft 171 kts 351°
2026-04-30 05:57 -34.04227 151.20098 1600 ft 159 kts 351°
2026-04-30 05:57 -34.03185 151.19826 1387 ft 149 kts 352°
2026-04-30 05:57 -34.02200 151.19569 1191 ft 141 kts 352°
2026-04-30 05:58 -34.01278 151.19329 1020 ft 131 kts 353°
2026-04-30 05:58 -34.00394 151.19099 841 ft 129 kts 352°
2026-04-30 05:58 -33.99507 151.18864 644 ft 131 kts 353°
2026-04-30 05:58 -33.98617 151.18639 476 ft 129 kts 353°
2026-04-30 05:59 -33.97726 151.18400 309 ft 131 kts 349°
2026-04-30 05:59 -33.96838 151.18173 149 ft 130 kts 349°
2026-04-30 05:59 -33.95951 151.17936 36 ft 127 kts 352°
2026-04-30 05:59 -33.95268 151.17765 36 ft 74 kts 348°
2026-04-30 06:00 -33.94840 151.17654 35 ft 55 kts 348°
2026-04-30 06:00 -33.94620 151.17586 36 ft 25 kts 341°
2026-04-30 06:00 -33.94463 151.17494 36 ft 25 kts 326°
2026-04-30 06:00 -33.94382 151.17417 36 ft 4 kts 318°
2026-04-30 06:01 -33.94355 151.17387 35 ft 6 kts 318°
2026-04-30 06:01 -33.94315 151.17343 36 ft 10 kts 319°
2026-04-30 06:01 -33.94256 151.17295 35 ft 8 kts 335°
2026-04-30 06:01 -33.94190 151.17264 35 ft 12 kts 316°
2026-04-30 06:02 -33.94189 151.17157 35 ft 16 kts 255°
2026-04-30 06:02 -33.94220 151.17012 35 ft 19 kts 255°
2026-04-30 06:02 -33.94205 151.16865 34 ft 18 kts 328°
2026-04-30 06:02 -33.94106 151.16830 36 ft 12 kts 340°
2026-04-30 06:03 -33.94085 151.16746 36 ft 13 kts 260°
2026-04-30 06:03 -33.94098 151.16660 36 ft 6 kts 281°
2026-04-30 06:03 -33.94081 151.16641 36 ft 4 kts 328°
2026-04-30 06:03 -33.94045 151.16627 36 ft 6 kts 344°
2026-04-30 06:04 -33.94018 151.16618 36 ft 2 kts 345°
2026-04-30 06:04 -33.94015 151.16617 36 ft 0 kts 345°
2026-04-30 06:04 -33.94013 151.16617 36 ft 0 kts 345°